Regional Weather Roundup
Issued by NWS

Home | Current Version | Previous Version | Text Only | Print | Product List | Glossary On
Versions: 1 2 3 4 5 6 7 8 9 10 11 12 13 14 15 16 17 18 19 20 21 22 23 24 25 26 27 28 29 30 31 32 33 34 35 36 37 38 39 40 41 42 43 44 45 46 47 48 49
000
ASUS46 KSEW 051710
RWRWA

WASHINGTON REGIONAL WEATHER ROUNDUP
NATIONAL WEATHER SERVICE SEATTLE WA
1000 AM PDT SUN JUL 05 2015

NOTE:"FAIR" INDICATES FEW OR NO CLOUDS BELOW 12,000 FEET WITH NO
SIGNIFICANT WEATHER AND/OR OBSTRUCTIONS TO VISIBILITY.

WAZ505-507>509-051800-
SEATTLE, TACOMA, EVERETT, AND VICINITY

CITY           SKY/WX    TMP DP  RH WIND       PRES   REMARKS
EVERETT        SUNNY     70  52  52 N5        29.87R
BOEING FIELD   SUNNY     75  53  46 NW5       29.84R
RENTON         SUNNY     74  55  51 NW6       29.84R
SEATAC AIRPORT MOSUNNY   77  51  40 N9        29.86R
JBLM-MCCHORD   SUNNY     80  49  33 N9        29.85R
PUYALLUP       FAIR      81  48  32 VRB3      29.85S
BREMERTON      SUNNY     75  54  46 N7        29.88R
JBLM-FT LEWIS  SUNNY     79  49  34 N9        29.84S
TACOMA NARROWS SUNNY     75  51  43 N9        29.85R
$$

WAZ001-503-506-510-514-515-051800-
NORTH INTERIOR

CITY           SKY/WX    TMP DP  RH WIND       PRES   REMARKS
BELLINGHAM     SUNNY     85  43  22 N14G25    29.84S
FRIDAY HARBOR  SUNNY     73  51  46 VRB5      29.87S
EASTSOUND      SUNNY     68  55  64 NW10      29.86S
PORT ANGELES   SUNNY     82  42  24 VRB6      29.89S
PORT TOWNSEND  FAIR      75  50  41 NW8G15    29.86S
NAS WHIDBEY    PTSUNNY   66  52  60 W7        29.90R
ARLINGTON      SUNNY     73  52  46 NW3       29.86S
BURLINGTON     SUNNY     72  57  60 CALM      29.85F
$$

WAZ020-022-039-040-504-511-512-051800-
SOUTHWEST INTERIOR

CITY           SKY/WX    TMP DP  RH WIND       PRES   REMARKS
SHELTON        SUNNY     78  52  40 CALM      29.82S
OLYMPIA        SUNNY     76  54  46 CALM      29.85R
CHEHALIS       FAIR      77  61  57 VRB3      29.84S
KELSO          SUNNY     70  57  64 CALM      29.87S
VANCOUVER      MOSUNNY   75  56  51 CALM      29.82F
SCAPPOOSE, OR  SUNNY     76  58  53 E5        29.82F
PORTLAND, OR   MOSUNNY   76  58  53 N6        29.82F
$$

WAZ021-516-517-051800-
WASHINGTON COAST

CITY           SKY/WX    TMP DP  RH WIND       PRES   REMARKS
FORKS          SUNNY     73  58  59 SW5       29.84S
HOQUIAM        MOSUNNY   62  58  86 W5        29.85S FOG
ASTORIA, OR    CLOUDY    64  57  78 CALM      29.85S
$$

WAZ019-023-024-040-518-519-051800-
CASCADE MOUNTAINS AND COLUMBIA GORGE

CITY           SKY/WX    TMP DP  RH WIND       PRES   REMARKS
TROUTDALE, OR  MOSUNNY   79  56  45 CALM      29.81S
THE DALLES, OR MOSUNNY   85  55  35 VRB6      29.79F
$$

WAZ026-027-041>044-520-521-051800-
EAST SLOPES

CITY           SKY/WX    TMP DP  RH WIND       PRES   REMARKS
OMAK           SUNNY     83  37  19 N18G25    29.91F
WENATCHEE      SUNNY     83  42  23 W9        29.87S
ELLENSBURG     SUNNY     81  41  24 NW3       29.88S
YAKIMA         SUNNY     88  41  19 W7        29.84S
$$

WAZ028-034-035-051800-
COLUMBIA BASIN

CITY           SKY/WX    TMP DP  RH WIND       PRES   REMARKS
EPHRATA        SUNNY     87  36  16 N23G30    29.85R
MOSES LAKE     SUNNY     88  36  15 N21       29.84R
PASCO          SUNNY     85  51  31 NW13      29.80R
HERMISTON, OR  SUNNY     89  38  16 NW7       29.81S
$$

WAZ036>038-051800-
NORTHEAST WASHINGTON

CITY           SKY/WX    TMP DP  RH WIND       PRES   REMARKS
SPOKANE GEIGER MOSUNNY   80  48  32 N13G20    29.89R
SPOKANE FELTS  SUNNY     82  50  32 E9        29.89R
FAIRCHILD AFB  SUNNY     79  47  33 NE16      29.90R
COEURDALENE,ID SUNNY     75  48  38 N24       29.91R
DEER PARK      SUNNY     79  47  32 NE20      29.93R
$$

WAZ029>033-051800-
SOUTHEAST WASHINGTON

CITY           SKY/WX    TMP DP  RH WIND       PRES   REMARKS
PULLMAN        MOSUNNY   80  45  28 W13       29.88R
LEWISTON, ID   MOSUNNY   87  49  26 NE5       29.79S
WALLA WALLA    SUNNY     82  38  20 SW16      29.82S
PENDLETON, OR  SUNNY     84  33  16 W7        29.85R
$$



USA.gov is the U.S. government's official web portal to all federal, state and local government web resources and services.